| time (UTC) | temp F | wind direction | speed knots | gust knots | rain 1hr in | rain 24hr in | rain mn in | humidity % | barometer mb |
| 20260505214254 | 58 | 243 | 3.5 | 5.2 | 0.00 | 0.00 | 0.00 | 41 | 1009.9 |
| 20260505213751 | 58 | 284 | 5.2 | 6.1 | 0.00 | 0.00 | 0.00 | 40 | 1010.2 |
| 20260505213248 | 58 | 252 | 2.6 | 7.0 | 0.00 | 0.00 | 0.00 | 40 | 1010.3 |
| 20260505212744 | 58 | 217 | 5.2 | 6.1 | 0.00 | 0.00 | 0.00 | 43 | 1010.3 |
| 20260505212242 | 58 | 278 | 0.9 | 7.0 | 0.00 | 0.00 | 0.00 | 42 | 1010.3 |
| 20260505211738 | 58 | 246 | 3.5 | 9.6 | 0.00 | 0.00 | 0.00 | 41 | 1010.4 |
| 20260505211236 | 59 | 262 | 1.7 | 2.6 | 0.00 | 0.00 | 0.00 | 43 | 1010.4 |
| 20260505210732 | 58 | 281 | 0.9 | 4.3 | 0.00 | 0.00 | 0.00 | 43 | 1010.4 |
| 20260505210229 | 58 | 262 | 2.6 | 4.3 | 0.00 | 0.00 | 0.00 | 41 | 1010.4 |
| 20260505205726 | 57 | 298 | 0.9 | 1.7 | 0.00 | 0.00 | 0.00 | 42 | 1010.6 |
| 20260505205224 | 58 | 295 | 2.6 | 5.2 | 0.00 | 0.00 | 0.00 | 41 | 1010.5 |
| 20260505204720 | 58 | 208 | 3.5 | 5.2 | 0.00 | 0.00 | 0.00 | 42 | 1010.7 |
| 20260505204219 | 57 | 262 | 1.7 | 5.2 | 0.00 | 0.00 | 0.00 | 44 | 1010.8 |
| 20260505203715 | 57 | 263 | 4.3 | 5.2 | 0.00 | 0.00 | 0.00 | 41 | 1011.0 |
| 20260505203212 | 57 | 226 | 6.1 | 7.8 | 0.00 | 0.00 | 0.00 | 41 | 1010.9 |
| 20260505202708 | 57 | 297 | 1.7 | 1.7 | 0.00 | 0.00 | 0.00 | 43 | 1011.2 |
| 20260505202204 | 56 | 280 | 3.5 | 7.0 | 0.00 | 0.00 | 0.00 | 42 | 1011.1 |
| 20260505201701 | 57 | 313 | 1.7 | 6.1 | 0.00 | 0.00 | 0.00 | 42 | 1011.2 |
| 20260505201159 | 57 | 287 | 0.0 | 4.3 | 0.00 | 0.00 | 0.00 | 41 | 1011.2 |
| 20260505200657 | 57 | 263 | 0.9 | 4.3 | 0.00 | 0.00 | 0.00 | 42 | 1011.2 |
| 20260505200153 | 57 | 294 | 7.0 | 9.6 | 0.00 | 0.00 | 0.00 | 42 | 1011.4 |
| 20260505195649 | 58 | 282 | 2.6 | 6.1 | 0.00 | 0.00 | 0.00 | 43 | 1011.3 |
| 20260505195147 | 57 | 259 | 2.6 | 6.1 | 0.00 | 0.00 | 0.00 | 41 | 1011.3 |
| 20260505194644 | 57 | 286 | 5.2 | 7.8 | 0.00 | 0.00 | 0.00 | 42 | 1011.6 |
| 20260505194140 | 57 | 187 | 4.3 | 7.0 | 0.00 | 0.00 | 0.00 | 41 | 1011.7 |
| 20260505193636 | 57 | 291 | 6.1 | 7.8 | 0.00 | 0.00 | 0.00 | 41 | 1011.6 |
| 20260505193133 | 57 | 294 | 1.7 | 4.3 | 0.00 | 0.00 | 0.00 | 43 | 1011.7 |
| 20260505192632 | 58 | 317 | 4.3 | 7.0 | 0.00 | 0.00 | 0.00 | 41 | 1011.6 |
| 20260505192129 | 57 | 277 | 0.0 | 6.1 | 0.00 | 0.00 | 0.00 | 44 | 1011.6 |
| 20260505191628 | 57 | 250 | 3.5 | 6.1 | 0.00 | 0.00 | 0.00 | 43 | 1011.6 |
| 20260505191125 | 57 | 328 | 5.2 | 7.8 | 0.00 | 0.00 | 0.00 | 43 | 1011.6 |
| 20260505190621 | 58 | 296 | 4.3 | 7.8 | 0.00 | 0.00 | 0.00 | 41 | 1011.8 |
| 20260505190116 | 57 | 332 | 2.6 | 7.0 | 0.00 | 0.00 | 0.00 | 42 | 1011.6 |
| 20260505185613 | 58 | 323 | 1.7 | 2.6 | 0.00 | 0.00 | 0.00 | 42 | 1011.6 |
| 20260505185109 | 58 | 224 | 4.3 | 6.1 | 0.00 | 0.00 | 0.00 | 40 | 1011.7 |
| 20260505184606 | 57 | 224 | 1.7 | 8.7 | 0.00 | 0.00 | 0.00 | 42 | 1011.7 |
| 20260505184103 | 57 | 297 | 1.7 | 4.3 | 0.00 | 0.00 | 0.00 | 45 | 1011.8 |
| 20260505183559 | 57 | 7 | 5.2 | 7.8 | 0.00 | 0.00 | 0.00 | 45 | 1011.9 |
| 20260505183057 | 56 | 44 | 4.3 | 5.2 | 0.00 | 0.00 | 0.00 | 44 | 1011.8 |
| 20260505182553 | 56 | 337 | 0.9 | 4.3 | 0.00 | 0.00 | 0.00 | 48 | 1011.8 |
| 20260505182050 | 56 | 357 | 6.1 | 7.8 | 0.00 | 0.00 | 0.00 | 45 | 1011.8 |
| 20260505181547 | 56 | 321 | 1.7 | 4.3 | 0.00 | 0.00 | 0.00 | 47 | 1012.0 |
| 20260505181044 | 56 | 352 | 7.0 | 7.8 | 0.00 | 0.00 | 0.00 | 46 | 1011.9 |
| 20260505180539 | 57 | 316 | 2.6 | 2.6 | 0.00 | 0.00 | 0.00 | 47 | 1012.0 |
| 20260505180038 | 56 | 277 | 0.9 | 2.6 | 0.00 | 0.00 | 0.00 | 49 | 1012.1 |
| 20260505175537 | 56 | 251 | 2.6 | 4.3 | 0.00 | 0.00 | 0.00 | 48 | 1012.2 |
| 20260505175035 | 55 | 282 | 0.9 | 4.3 | 0.00 | 0.00 | 0.00 | 48 | 1012.2 |
| 20260505174532 | 55 | 318 | 3.5 | 6.1 | 0.00 | 0.00 | 0.00 | 49 | 1012.5 |
| 20260505174028 | 56 | 304 | 2.6 | 5.2 | 0.00 | 0.00 | 0.00 | 48 | 1012.1 |
| 20260505173525 | 57 | 280 | 3.5 | 6.1 | 0.00 | 0.00 | 0.00 | 48 | 1012.3 |
| 20260505173021 | 56 | 165 | 2.6 | 4.3 | 0.00 | 0.00 | 0.00 | 50 | 1012.1 |
| 20260505172519 | 54 | 266 | 3.5 | 7.8 | 0.00 | 0.00 | 0.00 | 49 | 1012.3 |
| 20260505172014 | 54 | 359 | 3.5 | 6.1 | 0.00 | 0.00 | 0.00 | 50 | 1012.4 |
| 20260505171505 | 55 | 306 | 4.3 | 7.0 | 0.00 | 0.00 | 0.00 | 48 | 1012.4 |
| 20260505171002 | 55 | 287 | 0.9 | 2.6 | 0.00 | 0.00 | 0.00 | 50 | 1012.4 |
| 20260505170459 | 55 | 238 | 6.1 | 7.0 | 0.00 | 0.00 | 0.00 | 46 | 1012.4 |
| 20260505165954 | 55 | 271 | 2.6 | 2.6 | 0.00 | 0.00 | 0.00 | 47 | 1012.4 |
| 20260505165450 | 54 | 342 | 4.3 | 6.1 | 0.00 | 0.00 | 0.00 | 48 | 1012.7 |
| 20260505164946 | 54 | 337 | 0.0 | 1.7 | 0.00 | 0.00 | 0.00 | 53 | 1012.7 |
| 20260505164442 | 54 | 345 | 4.3 | 5.2 | 0.00 | 0.00 | 0.00 | 51 | 1012.5 |
| 20260505163940 | 53 | 317 | 0.9 | 7.0 | 0.00 | 0.00 | 0.00 | 51 | 1012.7 |
| 20260505163439 | 53 | 356 | 3.5 | 7.0 | 0.00 | 0.00 | 0.00 | 50 | 1012.3 |
| 20260505162938 | 53 | 297 | 4.3 | 5.2 | 0.00 | 0.00 | 0.00 | 49 | 1012.4 |
| 20260505162433 | 53 | 51 | 3.5 | 5.2 | 0.00 | 0.00 | 0.00 | 50 | 1012.1 |
| 20260505161930 | 55 | 331 | 4.3 | 6.1 | 0.00 | 0.00 | 0.00 | 50 | 1012.3 |
| 20260505161427 | 54 | 243 | 1.7 | 1.7 | 0.00 | 0.00 | 0.00 | 49 | 1012.2 |
| 20260505160924 | 54 | 351 | 3.5 | 5.2 | 0.00 | 0.00 | 0.00 | 49 | 1012.3 |
| 20260505160422 | 53 | 323 | 1.7 | 2.6 | 0.00 | 0.00 | 0.00 | 50 | 1012.2 |
| 20260505153356 | 53 | 288 | 0.9 | 1.7 | 0.00 | 0.00 | 0.00 | 55 | 1012.1 |
| 20260505152852 | 52 | 305 | 0.9 | 1.7 | 0.00 | 0.00 | 0.00 | 55 | 1012.0 |
| 20260505152349 | 52 | 341 | 2.6 | 4.3 | 0.00 | 0.00 | 0.00 | 56 | 1012.0 |
| 20260505151844 | 53 | 0 | 0.9 | 1.7 | 0.00 | 0.00 | 0.00 | 57 | 1011.9 |
| 20260505151340 | 53 | 297 | 1.7 | 1.7 | 0.00 | 0.00 | 0.00 | 55 | 1012.1 |
| 20260505150831 | 52 | 288 | 0.0 | 0.9 | 0.00 | 0.00 | 0.00 | 56 | 1012.0 |
| 20260505150328 | 53 | 308 | 2.6 | 4.3 | 0.00 | 0.00 | 0.00 | 57 | 1012.0 |
| 20260505140241 | 50 | 256 | 0.9 | 1.7 | 0.00 | 0.00 | 0.00 | 63 | 1011.5 |
| 20260505130205 | 51 | 256 | 0.0 | 0.0 | 0.00 | 0.00 | 0.00 | 67 | 1010.7 |
| 20260505124655 | 50 | 142 | 1.7 | 1.7 | 0.00 | 0.00 | 0.00 | 73 | 1010.2 |
| 20260505124151 | 49 | 226 | 0.0 | 0.9 | 0.00 | 0.00 | 0.00 | 76 | 1010.4 |
| 20260505123647 | 48 | 226 | 0.0 | 0.0 | 0.00 | 0.00 | 0.00 | 81 | 1010.4 |
| 20260505123145 | 48 | 226 | 0.0 | 0.9 | 0.00 | 0.00 | 0.00 | 82 | 1010.5 |
| 20260505122641 | 48 | 226 | 0.0 | 0.9 | 0.00 | 0.00 | 0.00 | 85 | 1010.3 |
| 20260505122138 | 47 | 183 | 0.0 | 0.9 | 0.00 | 0.00 | 0.00 | 86 | 1010.8 |
| 20260505121634 | 46 | 128 | 0.0 | 0.0 | 0.00 | 0.00 | 0.00 | 88 | 1010.8 |
| 20260505121126 | 46 | 128 | 0.0 | 0.0 | 0.00 | 0.00 | 0.00 | 88 | 1010.7 |
| 20260505120621 | 46 | 257 | 0.0 | 0.0 | 0.00 | 0.00 | 0.00 | 88 | 1011.2 |
| 20260505120117 | 46 | 257 | 0.0 | 0.0 | 0.00 | 0.00 | 0.00 | 89 | 1011.1 |
| 20260505115612 | 45 | 257 | 0.0 | 0.0 | 0.00 | 0.00 | 0.00 | 90 | 1011.1 |
| 20260505115110 | 45 | 258 | 0.0 | 0.0 | 0.00 | 0.00 | 0.00 | 90 | 1011.0 |
| 20260505114607 | 45 | 258 | 0.0 | 0.0 | 0.00 | 0.00 | 0.00 | 90 | 1011.1 |
| 20260505114103 | 45 | 258 | 0.9 | 0.9 | 0.00 | 0.00 | 0.00 | 90 | 1011.0 |
| 20260505113559 | 45 | 258 | 0.0 | 0.0 | 0.00 | 0.00 | 0.00 | 90 | 1010.9 |
| 20260505113056 | 45 | 258 | 0.0 | 0.9 | 0.00 | 0.00 | 0.00 | 90 | 1011.0 |
| 20260505112552 | 45 | 258 | 0.0 | 0.0 | 0.00 | 0.00 | 0.00 | 89 | 1010.8 |
| 20260505112050 | 45 | 257 | 0.0 | 0.9 | 0.00 | 0.00 | 0.00 | 90 | 1011.2 |
| 20260505111544 | 45 | 257 | 0.9 | 1.7 | 0.00 | 0.00 | 0.00 | 89 | 1011.0 |
| 20260505111040 | 45 | 258 | 0.9 | 0.9 | 0.00 | 0.00 | 0.00 | 88 | 1011.2 |
| 20260505110537 | 45 | 258 | 0.9 | 0.9 | 0.00 | 0.00 | 0.00 | 88 | 1011.1 |
| 20260505102010 | 46 | 258 | 0.0 | 0.9 | 0.00 | 0.00 | 0.00 | 86 | 1010.3 |
| 20260505101508 | 46 | 258 | 0.0 | 0.0 | 0.00 | 0.00 | 0.00 | 85 | 1009.9 |
| 20260505101004 | 47 | 258 | 0.0 | 0.0 | 0.00 | 0.00 | 0.00 | 84 | 1009.8 |
| 20260505100501 | 47 | 258 | 0.0 | 0.0 | 0.00 | 0.00 | 0.00 | 84 | 1009.6 |
| 20260505095957 | 47 | 258 | 0.0 | 0.0 | 0.00 | 0.00 | 0.00 | 84 | 1009.5 |
| 20260505095454 | 47 | 258 | 0.0 | 0.9 | 0.00 | 0.00 | 0.00 | 85 | 1009.9 |
| 20260505094950 | 47 | 258 | 0.0 | 0.0 | 0.00 | 0.00 | 0.00 | 84 | 1009.9 |
| 20260505094447 | 47 | 258 | 0.0 | 0.0 | 0.00 | 0.00 | 0.00 | 83 | 1009.9 |
| 20260505093943 | 48 | 258 | 0.0 | 0.9 | 0.00 | 0.00 | 0.00 | 83 | 1010.0 |
| 20260505093440 | 47 | 258 | 0.0 | 0.0 | 0.00 | 0.00 | 0.00 | 82 | 1009.5 |
| 20260505092937 | 48 | 258 | 0.0 | 0.0 | 0.00 | 0.00 | 0.00 | 83 | 1009.4 |
| 20260505092435 | 48 | 256 | 0.0 | 1.7 | 0.00 | 0.00 | 0.00 | 82 | 1009.1 |
| 20260505091932 | 48 | 235 | 1.7 | 1.7 | 0.00 | 0.00 | 0.00 | 82 | 1009.1 |
| 20260505091430 | 48 | 290 | 0.9 | 0.9 | 0.00 | 0.00 | 0.00 | 82 | 1008.9 |
| 20260505090928 | 48 | 291 | 0.0 | 0.0 | 0.00 | 0.00 | 0.00 | 82 | 1008.9 |
| 20260505090426 | 47 | 291 | 0.0 | 0.9 | 0.00 | 0.00 | 0.00 | 82 | 1008.8 |
| 20260505085923 | 48 | 291 | 0.0 | 0.9 | 0.00 | 0.00 | 0.00 | 83 | 1008.3 |
| 20260505085420 | 48 | 286 | 0.9 | 0.9 | 0.00 | 0.00 | 0.00 | 83 | 1008.7 |
| 20260505084918 | 48 | 286 | 0.0 | 0.9 | 0.00 | 0.00 | 0.00 | 83 | 1008.9 |
| 20260505084416 | 48 | 286 | 0.0 | 0.0 | 0.00 | 0.00 | 0.00 | 81 | 1008.9 |
| 20260505083914 | 48 | 258 | 0.9 | 1.7 | 0.00 | 0.00 | 0.00 | 80 | 1009.1 |
| 20260505083411 | 48 | 259 | 0.9 | 1.7 | 0.00 | 0.00 | 0.00 | 81 | 1008.1 |
| 20260505082907 | 48 | 262 | 0.0 | 0.9 | 0.00 | 0.00 | 0.00 | 82 | 1008.0 |
| 20260505082403 | 48 | 258 | 0.9 | 1.7 | 0.00 | 0.00 | 0.00 | 80 | 1008.4 |
| 20260505081900 | 48 | 263 | 0.9 | 0.9 | 0.00 | 0.00 | 0.00 | 80 | 1008.9 |
| 20260505081357 | 48 | 262 | 0.9 | 0.9 | 0.00 | 0.00 | 0.00 | 80 | 1009.0 |
| 20260505080854 | 48 | 256 | 0.9 | 1.7 | 0.00 | 0.00 | 0.00 | 80 | 1009.1 |
| 20260505080350 | 48 | 292 | 0.9 | 1.7 | 0.00 | 0.00 | 0.00 | 77 | 1008.4 |
| 20260505075845 | 48 | 319 | 0.9 | 0.9 | 0.00 | 0.00 | 0.00 | 80 | 1007.8 |
| 20260505075342 | 48 | 350 | 0.0 | 0.9 | 0.00 | 0.00 | 0.00 | 79 | 1007.5 |
| 20260505074840 | 48 | 350 | 0.0 | 0.9 | 0.00 | 0.00 | 0.00 | 79 | 1007.6 |
| 20260505074337 | 48 | 350 | 0.0 | 1.7 | 0.00 | 0.00 | 0.00 | 77 | 1007.7 |
| 20260505073834 | 48 | 349 | 0.9 | 1.7 | 0.00 | 0.00 | 0.00 | 76 | 1007.6 |
| 20260505073332 | 48 | 8 | 3.5 | 4.3 | 0.00 | 0.00 | 0.00 | 74 | 1007.9 |
| 20260505072829 | 48 | 15 | 0.9 | 5.2 | 0.00 | 0.00 | 0.00 | 75 | 1008.0 |
| 20260505072325 | 48 | 347 | 2.6 | 4.3 | 0.00 | 0.00 | 0.00 | 73 | 1008.2 |
| 20260505071821 | 49 | 347 | 1.7 | 8.7 | 0.00 | 0.00 | 0.00 | 70 | 1008.0 |
| 20260505071317 | 49 | 354 | 2.6 | 5.2 | 0.00 | 0.00 | 0.00 | 68 | 1008.2 |
| 20260505070816 | 50 | 9 | 3.5 | 6.1 | 0.00 | 0.00 | 0.00 | 66 | 1008.3 |
| 20260505070312 | 50 | 25 | 5.2 | 8.7 | 0.00 | 0.00 | 0.00 | 63 | 1008.3 |
| 20260505065807 | 50 | 14 | 4.3 | 11.3 | 0.00 | 0.00 | 0.00 | 64 | 1008.3 |
| 20260505065304 | 50 | 340 | 8.7 | 13.0 | 0.00 | 0.00 | 0.00 | 63 | 1008.4 |
| 20260505064801 | 50 | 13 | 6.1 | 13.9 | 0.00 | 0.00 | 0.00 | 62 | 1008.1 |
| 20260505064258 | 51 | 29 | 9.6 | 13.9 | 0.00 | 0.00 | 0.00 | 61 | 1008.4 |
| 20260505063756 | 51 | 359 | 6.1 | 12.2 | 0.00 | 0.00 | 0.00 | 62 | 1008.5 |
| 20260505063252 | 51 | 10 | 5.2 | 7.0 | 0.00 | 0.00 | 0.00 | 61 | 1008.5 |
| 20260505062748 | 51 | 3 | 5.2 | 12.2 | 0.00 | 0.00 | 0.00 | 58 | 1008.0 |
| 20260505062241 | 52 | 6 | 7.8 | 8.7 | 0.00 | 0.00 | 0.00 | 58 | 1007.9 |
| 20260505061737 | 52 | 11 | 7.0 | 8.7 | 0.00 | 0.00 | 0.00 | 57 | 1008.4 |
| 20260505061235 | 52 | 264 | 5.2 | 7.8 | 0.00 | 0.00 | 0.00 | 54 | 1008.4 |
| 20260505060732 | 53 | 15 | 2.6 | 12.2 | 0.00 | 0.00 | 0.00 | 54 | 1008.5 |
| 20260505060229 | 53 | 343 | 7.8 | 11.3 | 0.00 | 0.00 | 0.00 | 53 | 1008.6 |
| 20260505055724 | 53 | 10 | 6.1 | 11.3 | 0.00 | 0.00 | 0.00 | 53 | 1008.6 |
| 20260505055221 | 53 | 2 | 7.0 | 8.7 | 0.00 | 0.00 | 0.00 | 52 | 1008.5 |
| 20260505054719 | 54 | 339 | 2.6 | 7.0 | 0.00 | 0.00 | 0.00 | 51 | 1008.5 |
| 20260505054216 | 54 | 344 | 4.3 | 11.3 | 0.00 | 0.00 | 0.00 | 49 | 1008.3 |
| 20260505053714 | 54 | 26 | 4.3 | 13.9 | 0.00 | 0.00 | 0.00 | 48 | 1008.0 |
| 20260505053210 | 54 | 354 | 5.2 | 7.0 | 0.00 | 0.00 | 0.00 | 49 | 1008.1 |
| 20260505052708 | 54 | 358 | 6.1 | 7.8 | 0.00 | 0.00 | 0.00 | 49 | 1007.8 |
| 20260505052204 | 54 | 338 | 7.0 | 11.3 | 0.00 | 0.00 | 0.00 | 49 | 1007.6 |
| 20260505051702 | 54 | 355 | 5.2 | 11.3 | 0.00 | 0.00 | 0.00 | 50 | 1007.7 |
| 20260505051159 | 54 | 330 | 6.1 | 13.9 | 0.00 | 0.00 | 0.00 | 50 | 1007.4 |
| 20260505050651 | 55 | 11 | 13.0 | 14.8 | 0.00 | 0.00 | 0.00 | 49 | 1006.9 |
| 20260505050149 | 55 | 21 | 12.2 | 13.9 | 0.00 | 0.00 | 0.00 | 49 | 1007.1 |
| 20260505041618 | 56 | 15 | 7.0 | 15.6 | 0.00 | 0.00 | 0.00 | 45 | 1007.1 |
| 20260505041115 | 56 | 15 | 8.7 | 12.2 | 0.00 | 0.00 | 0.00 | 45 | 1007.2 |
| 20260505040613 | 56 | 13 | 4.3 | 11.3 | 0.00 | 0.00 | 0.00 | 45 | 1007.1 |
| 20260505040110 | 56 | 8 | 5.2 | 7.0 | 0.00 | 0.00 | 0.00 | 44 | 1007.2 |
| 20260505035606 | 56 | 343 | 8.7 | 14.8 | 0.00 | 0.00 | 0.00 | 43 | 1007.2 |
| 20260505035103 | 56 | 15 | 7.8 | 9.6 | 0.00 | 0.00 | 0.00 | 43 | 1007.2 |
| 20260505034600 | 56 | 1 | 7.0 | 9.6 | 0.00 | 0.00 | 0.00 | 44 | 1007.1 |
| 20260505034056 | 56 | 356 | 7.0 | 14.8 | 0.00 | 0.00 | 0.00 | 43 | 1007.0 |
| 20260505033553 | 56 | 350 | 9.6 | 17.4 | 0.00 | 0.00 | 0.00 | 43 | 1006.7 |
| 20260505033051 | 56 | 355 | 4.3 | 11.3 | 0.00 | 0.00 | 0.00 | 44 | 1007.5 |
| 20260505032549 | 57 | 4 | 6.1 | 17.4 | 0.00 | 0.00 | 0.00 | 43 | 1007.5 |
| 20260505032045 | 57 | 7 | 5.2 | 17.4 | 0.00 | 0.00 | 0.00 | 43 | 1007.1 |
| 20260505031542 | 57 | 346 | 8.7 | 15.6 | 0.00 | 0.00 | 0.00 | 43 | 1007.1 |
| 20260505031038 | 58 | 6 | 15.6 | 22.6 | 0.00 | 0.00 | 0.00 | 43 | 1006.7 |
| 20260505030536 | 58 | 4 | 12.2 | 20.9 | 0.00 | 0.00 | 0.00 | 43 | 1006.2 |
| 20260505030032 | 58 | 6 | 12.2 | 19.1 | 0.00 | 0.00 | 0.00 | 43 | 1006.7 |
| 20260505025527 | 58 | 351 | 5.2 | 11.3 | 0.00 | 0.00 | 0.00 | 44 | 1006.7 |
| 20260505025027 | 58 | 358 | 7.8 | 13.0 | 0.00 | 0.00 | 0.00 | 42 | 1006.7 |
| 20260505024523 | 58 | 339 | 10.4 | 15.6 | 0.00 | 0.00 | 0.00 | 42 | 1006.8 |
| 20260505024020 | 59 | 317 | 9.6 | 12.2 | 0.00 | 0.00 | 0.00 | 42 | 1006.7 |
| 20260505023517 | 59 | 344 | 6.1 | 8.7 | 0.00 | 0.00 | 0.00 | 42 | 1006.6 |
| 20260505023015 | 59 | 353 | 3.5 | 7.0 | 0.00 | 0.00 | 0.00 | 42 | 1006.1 |
| 20260505022513 | 60 | 344 | 4.3 | 13.0 | 0.00 | 0.00 | 0.00 | 41 | 1005.9 |
| 20260505022010 | 60 | 341 | 4.3 | 15.6 | 0.00 | 0.00 | 0.00 | 41 | 1005.7 |
| 20260505021506 | 60 | 302 | 9.6 | 18.2 | 0.00 | 0.00 | 0.00 | 41 | 1005.8 |
| 20260505021002 | 60 | 10 | 7.8 | 15.6 | 0.00 | 0.00 | 0.00 | 41 | 1005.6 |
| 20260505020457 | 61 | 351 | 4.3 | 13.9 | 0.00 | 0.00 | 0.00 | 41 | 1005.7 |
| 20260505015954 | 61 | 305 | 6.1 | 18.2 | 0.00 | 0.00 | 0.00 | 41 | 1005.3 |
| 20260505015451 | 63 | 286 | 6.1 | 14.8 | 0.00 | 0.00 | 0.00 | 39 | 1005.2 |
| 20260505014948 | 63 | 15 | 7.0 | 19.1 | 0.00 | 0.00 | 0.00 | 37 | 1005.1 |
| 20260505014445 | 63 | 7 | 9.6 | 19.1 | 0.00 | 0.00 | 0.00 | 36 | 1004.8 |
| 20260505013942 | 64 | 359 | 9.6 | 20.9 | 0.00 | 0.00 | 0.00 | 36 | 1004.8 |
| 20260505013439 | 64 | 23 | 15.6 | 20.0 | 0.00 | 0.00 | 0.00 | 35 | 1004.4 |
| 20260505012937 | 65 | 1 | 11.3 | 20.9 | 0.00 | 0.00 | 0.00 | 35 | 1004.5 |
| 20260505012436 | 65 | 352 | 12.2 | 13.9 | 0.00 | 0.00 | 0.00 | 34 | 1004.2 |
| 20260505011932 | 66 | 336 | 8.7 | 12.2 | 0.00 | 0.00 | 0.00 | 35 | 1003.8 |
| 20260505011428 | 66 | 7 | 11.3 | 19.1 | 0.00 | 0.00 | 0.00 | 34 | 1003.9 |
| 20260505010925 | 66 | 6 | 7.0 | 19.1 | 0.00 | 0.00 | 0.00 | 34 | 1003.5 |
| 20260505010420 | 67 | 5 | 6.1 | 14.8 | 0.00 | 0.00 | 0.00 | 34 | 1003.6 |
| 20260505005916 | 67 | 9 | 11.3 | 15.6 | 0.00 | 0.00 | 0.00 | 33 | 1003.4 |
| 20260505005413 | 68 | 11 | 4.3 | 13.9 | 0.00 | 0.00 | 0.00 | 34 | 1003.4 |
| 20260505004910 | 68 | 335 | 10.4 | 20.9 | 0.00 | 0.00 | 0.00 | 33 | 1003.2 |
| 20260505004407 | 68 | 309 | 8.7 | 20.0 | 0.00 | 0.00 | 0.00 | 33 | 1003.2 |
| 20260505003904 | 69 | 334 | 9.6 | 21.7 | 0.00 | 0.00 | 0.00 | 33 | 1002.8 |
| 20260505003401 | 70 | 9 | 6.1 | 15.6 | 0.00 | 0.00 | 0.00 | 33 | 1002.7 |
| 20260505002857 | 71 | 6 | 14.8 | 21.7 | 0.00 | 0.00 | 0.00 | 32 | 1002.3 |
| 20260505002354 | 71 | 5 | 4.3 | 14.8 | 0.00 | 0.00 | 0.00 | 33 | 1002.3 |
| 20260505001852 | 72 | 12 | 11.3 | 18.2 | 0.00 | 0.00 | 0.00 | 32 | 1002.3 |
| 20260505001349 | 72 | 353 | 8.7 | 14.8 | 0.00 | 0.00 | 0.00 | 32 | 1002.0 |
| 20260505000846 | 73 | 337 | 10.4 | 14.8 | 0.00 | 0.00 | 0.00 | 30 | 1002.1 |
| 20260505000344 | 73 | 354 | 7.0 | 14.8 | 0.00 | 0.00 | 0.00 | 31 | 1002.1 |
| 20260504235840 | 73 | 3 | 8.7 | 12.2 | 0.00 | 0.00 | 0.00 | 32 | 1002.0 |
| 20260504235338 | 74 | 333 | 7.8 | 18.2 | 0.00 | 0.00 | 0.00 | 31 | 1001.9 |
| 20260504234834 | 74 | 344 | 10.4 | 19.1 | 0.00 | 0.00 | 0.00 | 31 | 1002.0 |
| 20260504234332 | 75 | 341 | 12.2 | 20.0 | 0.00 | 0.00 | 0.00 | 30 | 1001.8 |
| 20260504233828 | 75 | 46 | 7.0 | 13.9 | 0.00 | 0.00 | 0.00 | 30 | 1001.8 |
| 20260504233324 | 75 | 1 | 5.2 | 19.1 | 0.00 | 0.00 | 0.00 | 30 | 1001.7 |
| 20260504232821 | 75 | 341 | 10.4 | 15.6 | 0.00 | 0.00 | 0.00 | 30 | 1001.5 |
| 20260504232318 | 75 | 337 | 13.0 | 20.9 | 0.00 | 0.00 | 0.00 | 31 | 1001.7 |
| 20260504231815 | 76 | 316 | 3.5 | 15.6 | 0.00 | 0.00 | 0.00 | 31 | 1001.5 |
| 20260504231311 | 76 | 299 | 7.8 | 20.0 | 0.00 | 0.00 | 0.00 | 31 | 1001.4 |
| 20260504230808 | 76 | 44 | 10.4 | 18.2 | 0.00 | 0.00 | 0.00 | 31 | 1001.5 |
| 20260504230306 | 76 | 20 | 12.2 | 17.4 | 0.00 | 0.00 | 0.00 | 31 | 1001.4 |
| 20260504225804 | 77 | 349 | 9.6 | 15.6 | 0.00 | 0.00 | 0.00 | 31 | 1001.2 |
| 20260504225300 | 77 | 295 | 13.9 | 18.2 | 0.00 | 0.00 | 0.00 | 31 | 1001.0 |
| 20260504224757 | 78 | 330 | 7.8 | 17.4 | 0.00 | 0.00 | 0.00 | 32 | 1001.1 |
| 20260504224255 | 78 | 328 | 13.0 | 20.9 | 0.00 | 0.00 | 0.00 | 31 | 1000.9 |
| 20260504223751 | 78 | 50 | 7.0 | 13.9 | 0.00 | 0.00 | 0.00 | 33 | 1001.0 |
| 20260504223247 | 78 | 306 | 8.7 | 13.9 | 0.00 | 0.00 | 0.00 | 33 | 1000.5 |
| 20260504222744 | 79 | 333 | 6.1 | 13.9 | 0.00 | 0.00 | 0.00 | 34 | 1000.7 |
| 20260504222241 | 79 | 5 | 5.2 | 14.8 | 0.00 | 0.00 | 0.00 | 34 | 1000.5 |
| 20260504221738 | 80 | 314 | 7.0 | 14.8 | 0.00 | 0.00 | 0.00 | 34 | 1000.3 |
| 20260504221235 | 81 | 348 | 7.0 | 11.3 | 0.00 | 0.00 | 0.00 | 35 | 1000.1 |
| 20260504220731 | 81 | 358 | 7.0 | 11.3 | 0.00 | 0.00 | 0.00 | 32 | 1000.2 |
| 20260504220229 | 80 | 309 | 1.7 | 9.6 | 0.00 | 0.00 | 0.00 | 34 | 1000.0 |
| 20260504215726 | 79 | 337 | 4.3 | 11.3 | 0.00 | 0.00 | 0.00 | 34 | 1000.0 |
| 20260504215217 | 79 | 324 | 1.7 | 11.3 | 0.00 | 0.00 | 0.00 | 36 | 1000.2 |
| 20260504214712 | 80 | 340 | 7.0 | 8.7 | 0.00 | 0.00 | 0.00 | 33 | 1000.2 |